Location: Focicchia
(42.2496°N, 9.2935°E)
Time: 13:09:16
(UTC+00:00)

Cosmos 1408 - Pass Details

Date: 07 June 2020
Orbit: 469 x 495 km, 82.6° (Epoch: 14 July)

Event Time Altitude Azimuth Distance (km) Brightness Sun altitude
Exits shadow 01:49:36 28° 172° (S) 958 3.6 -16.6°
Maximum altitude 01:51:26 68° 95° (E) 534 2.8 -16.4°
Drops below altitude 10° 01:55:05 10° 13° (NNE) 1,686 6.4 -16.0°
Sets 01:57:12 0° 11° (N) 2,568 7.4 -15.7°
